KD0SBN-3 Weather Reports


time (UTC)temp
F
wind
direction
speed
knots
gust
knots
rain 1hr
in
rain 24hr
in
rain mn
in
humidity
%
barometer
mb
20260906214824 79 167 2.6 5.2 0.00 0.00 0.00 32 1032.7
20260906214319 79 248 0.9 0.9 0.00 0.00 0.00 34 1033.4
20260906213819 80 234 1.7 2.6 0.00 0.00 0.00 32 1033.1
20260906213319 78 235 0.9 0.9 0.00 0.00 0.00 34 1032.8
20260906212816 79 277 1.7 2.6 0.00 0.00 0.00 35 1033.1
20260906212311 78 248 0.9 0.9 0.00 0.00 0.00 36 1033.4
20260906211811 79 195 1.7 2.6 0.00 0.00 0.00 32 1033.5
20260906211307 79 265 0.0 0.9 0.00 0.00 0.00 34 1033.6
20260906210807 79 277 0.9 1.7 0.00 0.00 0.00 34 1033.4
20260906210307 78 229 1.7 1.7 0.00 0.00 0.00 35 1033.4
20260906205801 77 216 1.7 2.6 0.00 0.00 0.00 33 1033.5
20260906205259 77 252 0.0 0.9 0.00 0.00 0.00 35 1033.5
20260906204754 77 249 0.9 1.7 0.00 0.00 0.00 35 1033.5
20260906204253 76 44 1.7 3.5 0.00 0.00 0.00 37 1033.6
20260906203752 76 254 0.0 0.9 0.00 0.00 0.00 36 1033.9
20260906203248 74 234 1.7 1.7 0.00 0.00 0.00 36 1034.0
20260906202744 74 257 0.9 0.9 0.00 0.00 0.00 36 1034.0
20260906202244 72 250 0.9 1.7 0.00 0.00 0.00 37 1033.9
20260906201739 71 222 1.7 1.7 0.00 0.00 0.00 36 1034.1
20260906201238 71 183 3.5 6.1 0.00 0.00 0.00 36 1034.1
20260906200734 72 240 0.9 1.7 0.00 0.00 0.00 38 1034.0
20260906200230 72 236 0.9 1.7 0.00 0.00 0.00 38 1034.3
20260906195725 73 235 0.9 1.7 0.00 0.00 0.00 39 1034.4
20260906195222 73 269 0.0 0.9 0.00 0.00 0.00 38 1034.1
20260906194717 74 257 0.9 1.7 0.00 0.00 0.00 37 1034.3
20260906194212 74 240 0.9 0.9 0.00 0.00 0.00 39 1034.3
20260906193708 75 252 1.7 2.6 0.00 0.00 0.00 38 1034.4
20260906193202 75 224 0.9 1.7 0.00 0.00 0.00 37 1034.5
20260906192658 74 241 1.7 1.7 0.00 0.00 0.00 37 1034.4
20260906192157 75 238 1.7 1.7 0.00 0.00 0.00 37 1034.3
20260906191653 74 243 2.6 5.2 0.00 0.00 0.00 38 1034.3
20260906191152 76 226 0.9 0.9 0.00 0.00 0.00 38 1034.5
20260906190646 77 232 0.9 0.9 0.00 0.00 0.00 38 1034.5
20260906190141 78 259 0.9 0.9 0.00 0.00 0.00 37 1034.5
20260906185640 78 192 0.9 0.9 0.00 0.00 0.00 35 1034.8
20260906185139 79 235 1.7 2.6 0.00 0.00 0.00 37 1034.7
20260906184634 78 242 1.7 1.7 0.00 0.00 0.00 36 1034.7
20260906184130 77 300 0.9 0.9 0.00 0.00 0.00 37 1034.8
20260906183625 77 168 1.7 2.6 0.00 0.00 0.00 38 1034.9
20260906183121 76 245 0.0 0.9 0.00 0.00 0.00 38 1034.7
20260906182615 76 236 1.7 1.7 0.00 0.00 0.00 38 1034.9
20260906182112 77 219 4.3 6.1 0.00 0.00 0.00 36 1035.2
20260906181612 76 234 0.9 1.7 0.00 0.00 0.00 39 1035.2
20260906181108 77 169 1.7 1.7 0.00 0.00 0.00 38 1035.3
20260906180603 76 240 1.7 1.7 0.00 0.00 0.00 38 1035.3
20260906175601 76 217 1.7 2.6 0.00 0.00 0.00 40 1035.5
20260906175056 75 267 0.0 0.9 0.00 0.00 0.00 43 1035.5
20260906174554 74 263 1.7 1.7 0.00 0.00 0.00 42 1035.6
20260906174050 74 251 0.9 0.9 0.00 0.00 0.00 43 1035.3
20260906173550 77 235 0.0 0.9 0.00 0.00 0.00 39 1035.5
20260906173047 75 243 0.0 0.9 0.00 0.00 0.00 44 1035.6
20260906172546 75 227 1.7 2.6 0.00 0.00 0.00 41 1035.7
20260906172042 73 224 1.7 2.6 0.00 0.00 0.00 44 1035.7
20260906171536 71 268 0.0 0.9 0.00 0.00 0.00 47 1036.0
20260906171032 71 203 1.7 2.6 0.00 0.00 0.00 46 1035.8
20260906170527 71 206 2.6 5.2 0.00 0.00 0.00 45 1035.6
20260906170027 72 271 0.9 0.9 0.00 0.00 0.00 45 1036.0
20260906165524 73 273 0.0 0.0 0.00 0.00 0.00 45 1035.6
20260906165024 73 256 0.9 0.9 0.00 0.00 0.00 44 1035.7
20260906164522 75 249 0.9 1.7 0.00 0.00 0.00 40 1035.8
20260906164020 75 228 1.7 1.7 0.00 0.00 0.00 38 1035.6
20260906163520 76 91 1.7 1.7 0.00 0.00 0.00 37 1035.8
20260906163015 75 266 0.9 1.7 0.00 0.00 0.00 39 1035.7
20260906162512 74 208 0.9 1.7 0.00 0.00 0.00 41 1035.7
20260906162007 75 253 1.7 1.7 0.00 0.00 0.00 40 1035.6
20260906161503 74 319 0.9 0.9 0.00 0.00 0.00 40 1035.7
20260906161001 73 126 1.7 2.6 0.00 0.00 0.00 40 1035.6
20260906160500 74 290 0.0 0.0 0.00 0.00 0.00 42 1035.7
20260906155958 72 165 0.0 0.0 0.00 0.00 0.00 47 1035.5
20260906155457 71 73 1.7 2.6 0.00 0.00 0.00 42 1035.6
20260906154953 73 106 2.6 3.5 0.00 0.00 0.00 41 1035.7
20260906154449 72 122 0.0 0.9 0.00 0.00 0.00 40 1035.2
20260906153947 74 176 1.7 1.7 0.00 0.00 0.00 40 1035.5
20260906153446 74 246 0.9 0.9 0.00 0.00 0.00 40 1035.2
20260906152941 73 232 1.7 2.6 0.00 0.00 0.00 40 1035.3
20260906152441 72 234 0.9 0.9 0.00 0.00 0.00 42 1035.3
20260906151940 72 248 0.0 0.9 0.00 0.00 0.00 43 1035.3
20260906151436 73 201 0.9 0.9 0.00 0.00 0.00 42 1035.3
20260906150932 74 250 0.0 0.9 0.00 0.00 0.00 39 1035.5
20260906150427 73 275 0.0 0.0 0.00 0.00 0.00 40 1035.5
20260906145927 73 246 0.0 0.0 0.00 0.00 0.00 41 1035.1
20260906145426 73 229 0.9 0.9 0.00 0.00 0.00 39 1035.1
20260906144921 73 263 0.0 0.9 0.00 0.00 0.00 39 1034.9
20260906144421 70 302 0.0 0.0 0.00 0.00 0.00 39 1034.9
20260906143916 72 303 0.9 0.9 0.00 0.00 0.00 39 1035.2
20260906143412 72 261 0.0 0.0 0.00 0.00 0.00 38 1034.9
20260906142908 71 248 0.0 0.0 0.00 0.00 0.00 38 1035.2
20260906142408 71 246 0.0 0.9 0.00 0.00 0.00 40 1035.1
20260906141908 70 250 0.0 0.0 0.00 0.00 0.00 41 1035.1
20260906141402 69 241 0.9 0.9 0.00 0.00 0.00 43 1034.9
20260906140902 68 246 0.0 0.9 0.00 0.00 0.00 43 1035.2
20260906140356 69 211 1.7 1.7 0.00 0.00 0.00 42 1035.1
20260906135855 68 248 0.0 0.9 0.00 0.00 0.00 42 1034.9
20260906135354 67 225 0.9 1.7 0.00 0.00 0.00 42 1034.7
20260906134850 67 248 0.9 1.7 0.00 0.00 0.00 42 1034.8
20260906134344 67 247 0.9 0.9 0.00 0.00 0.00 43 1034.7
20260906133840 68 255 0.0 0.0 0.00 0.00 0.00 44 1034.7
20260906133336 67 257 0.0 0.0 0.00 0.00 0.00 45 1034.4
20260906132831 65 236 1.7 1.7 0.00 0.00 0.00 41 1034.4
20260906132326 65 251 0.9 0.9 0.00 0.00 0.00 44 1034.3
20260906131822 64 233 1.7 1.7 0.00 0.00 0.00 44 1034.3
20260906131317 63 253 0.0 0.0 0.00 0.00 0.00 45 1034.3
20260906130813 63 228 1.7 1.7 0.00 0.00 0.00 45 1034.3
20260906130312 63 209 0.9 1.7 0.00 0.00 0.00 45 1034.0
20260906125811 63 237 0.9 0.9 0.00 0.00 0.00 45 1034.1
20260906125310 63 301 0.0 0.0 0.00 0.00 0.00 45 1034.0
20260906124810 62 298 0.0 0.0 0.00 0.00 0.00 45 1033.9
20260906124306 62 298 0.0 0.0 0.00 0.00 0.00 46 1034.0
20260906123804 63 298 0.0 0.0 0.00 0.00 0.00 45 1033.8
20260906123300 63 298 0.0 0.0 0.00 0.00 0.00 44 1033.9
20260906122759 62 293 0.0 0.9 0.00 0.00 0.00 43 1033.8
20260906122255 62 293 0.0 0.0 0.00 0.00 0.00 44 1033.8
20260906121751 62 293 0.0 0.0 0.00 0.00 0.00 44 1033.5
20260906121247 62 291 0.0 0.0 0.00 0.00 0.00 44 1033.6
20260906120743 63 291 0.0 0.0 0.00 0.00 0.00 43 1033.9
20260906120240 63 290 0.0 0.0 0.00 0.00 0.00 43 1033.9
20260906115735 62 279 0.0 0.9 0.00 0.00 0.00 44 1033.9
20260906115230 61 298 0.0 0.0 0.00 0.00 0.00 46 1033.9
20260906114729 62 301 0.9 0.9 0.00 0.00 0.00 45 1033.9
20260906114224 62 301 0.9 0.9 0.00 0.00 0.00 45 1033.9
20260906113720 62 310 0.9 0.9 0.00 0.00 0.00 45 1034.0
20260906113219 62 311 0.9 0.9 0.00 0.00 0.00 45 1033.9
20260906112718 62 310 0.9 0.9 0.00 0.00 0.00 45 1033.8
20260906112216 62 311 0.0 0.9 0.00 0.00 0.00 45 1033.9
20260906111715 62 306 0.0 0.9 0.00 0.00 0.00 45 1034.0
20260906111209 61 300 0.0 0.9 0.00 0.00 0.00 46 1033.8
20260906110705 61 299 0.9 0.9 0.00 0.00 0.00 46 1034.0
20260906110201 61 297 0.0 0.0 0.00 0.00 0.00 48 1034.0
20260906105700 61 296 0.0 0.0 0.00 0.00 0.00 48 1034.0
20260906105156 61 296 0.9 0.9 0.00 0.00 0.00 47 1033.8
20260906104655 61 296 0.0 0.9 0.00 0.00 0.00 47 1033.9
20260906104154 62 285 0.0 0.0 0.00 0.00 0.00 47 1033.8
20260906103652 62 284 0.0 0.0 0.00 0.00 0.00 47 1034.1
20260906103148 62 284 0.0 0.0 0.00 0.00 0.00 47 1034.0
20260906102643 62 282 0.0 0.0 0.00 0.00 0.00 46 1033.9
20260906102143 59 264 0.9 0.9 0.00 0.00 0.00 49 1034.0
20260906101643 59 298 0.0 0.0 0.00 0.00 0.00 54 1033.8
20260906101143 60 299 0.9 0.9 0.00 0.00 0.00 53 1033.9
20260906100639 61 277 0.0 0.9 0.00 0.00 0.00 52 1033.8
20260906100134 60 233 1.7 3.5 0.00 0.00 0.00 53 1033.9
20260906095634 60 240 3.5 5.2 0.00 0.00 0.00 52 1033.8
20260906095129 60 264 2.6 3.5 0.00 0.00 0.00 52 1033.8
20260906094628 60 238 3.5 3.5 0.00 0.00 0.00 54 1034.0
20260906094124 59 244 1.7 1.7 0.00 0.00 0.00 57 1033.8
20260906093620 60 248 1.7 2.6 0.00 0.00 0.00 59 1034.0
20260906093114 59 221 3.5 5.2 0.00 0.00 0.00 60 1034.0
20260906092609 59 218 1.7 2.6 0.00 0.00 0.00 62 1034.0
20260906092104 58 225 0.9 1.7 0.00 0.00 0.00 64 1034.0
20260906091600 57 214 4.3 5.2 0.00 0.00 0.00 64 1034.0
20260906091057 56 239 1.7 1.7 0.00 0.00 0.00 65 1034.0
20260906090556 57 254 0.0 0.9 0.00 0.00 0.00 63 1034.3
20260906090051 58 256 0.0 0.0 0.00 0.00 0.00 62 1034.0
20260906085550 58 246 0.9 0.9 0.00 0.00 0.00 60 1033.9
20260906085050 59 210 1.7 1.7 0.00 0.00 0.00 59 1034.0
20260906084545 59 216 1.7 2.6 0.00 0.00 0.00 59 1034.3
20260906084043 59 225 1.7 1.7 0.00 0.00 0.00 58 1034.3
20260906083539 59 225 1.7 1.7 0.00 0.00 0.00 58 1034.1
20260906083039 59 235 0.9 0.9 0.00 0.00 0.00 58 1034.0
20260906082534 59 225 0.9 1.7 0.00 0.00 0.00 58 1034.1
20260906082030 60 216 1.7 1.7 0.00 0.00 0.00 57 1034.3
20260906081526 62 250 0.9 1.7 0.00 0.00 0.00 52 1034.0
20260906081022 65 239 0.9 0.9 0.00 0.00 0.00 44 1034.1
20260906080518 65 257 0.9 0.9 0.00 0.00 0.00 43 1034.1
20260906080014 65 266 0.0 0.0 0.00 0.00 0.00 43 1034.1
20260906075513 64 263 0.9 0.9 0.00 0.00 0.00 44 1034.3
20260906075008 64 269 0.0 0.9 0.00 0.00 0.00 45 1034.3
20260906074503 64 258 1.7 1.7 0.00 0.00 0.00 45 1034.3
20260906074001 64 269 1.7 1.7 0.00 0.00 0.00 46 1034.4
20260906073456 64 271 0.9 0.9 0.00 0.00 0.00 47 1034.3
20260906072952 64 267 0.9 0.9 0.00 0.00 0.00 47 1034.0
20260906072447 64 268 0.9 0.9 0.00 0.00 0.00 48 1034.4
20260906071943 64 267 0.9 1.7 0.00 0.00 0.00 49 1034.5
20260906071439 63 274 0.9 1.7 0.00 0.00 0.00 49 1034.4
20260906070935 63 267 0.9 0.9 0.00 0.00 0.00 50 1034.5
20260906070431 63 269 1.7 1.7 0.00 0.00 0.00 50 1034.4
20260906065926 63 273 0.9 0.9 0.00 0.00 0.00 51 1034.7
20260906065420 63 266 1.7 1.7 0.00 0.00 0.00 52 1034.7
20260906064916 63 276 0.9 1.7 0.00 0.00 0.00 52 1034.4
20260906064413 62 259 1.7 1.7 0.00 0.00 0.00 53 1034.5
20260906063912 62 276 0.9 1.7 0.00 0.00 0.00 54 1034.7
20260906063408 62 291 1.7 1.7 0.00 0.00 0.00 54 1034.8
20260906062902 62 268 2.6 3.5 0.00 0.00 0.00 55 1034.5
20260906062402 62 290 0.9 1.7 0.00 0.00 0.00 57 1034.7
20260906061858 62 284 1.7 1.7 0.00 0.00 0.00 57 1034.5
20260906061354 62 265 0.9 0.9 0.00 0.00 0.00 57 1034.7
20260906060848 62 265 0.9 1.7 0.00 0.00 0.00 57 1034.5
20260906060346 62 261 0.9 1.7 0.00 0.00 0.00 58 1034.9
20260906055841 62 269 0.0 0.0 0.00 0.00 0.00 57 1034.8
20260906055337 62 271 0.0 0.0 0.00 0.00 0.00 57 1034.7
20260906054832 62 282 0.9 0.9 0.00 0.00 0.00 57 1034.8
20260906054327 62 275 0.9 0.9 0.00 0.00 0.00 58 1035.2
20260906053824 61 281 0.0 0.9 0.00 0.00 0.00 59 1035.1
20260906053319 60 290 0.0 0.0 0.00 0.00 0.00 63 1035.1
20260906052814 60 312 0.0 0.0 0.00 0.00 0.00 59 1035.2
20260906052310 60 312 0.0 0.0 0.00 0.00 0.00 58 1035.1
20260906051808 60 307 0.0 0.0 0.00 0.00 0.00 59 1035.3
20260906051307 60 299 0.0 0.0 0.00 0.00 0.00 62 1035.1
20260906050802 60 279 0.0 0.0 0.00 0.00 0.00 65 1035.2
20260906050257 60 277 0.0 0.0 0.00 0.00 0.00 67 1035.2
20260906045756 60 277 0.0 0.0 0.00 0.00 0.00 66 1035.2
20260906045250 61 275 0.0 0.0 0.00 0.00 0.00 63 1034.9
20260906044747 61 264 0.0 0.0 0.00 0.00 0.00 62 1034.9
20260906044241 62 260 0.0 0.9 0.00 0.00 0.00 61 1035.1
20260906043738 62 257 0.0 0.0 0.00 0.00 0.00 59 1035.1
20260906043233 63 254 0.0 0.9 0.00 0.00 0.00 57 1035.1
20260906042733 63 255 0.0 0.0 0.00 0.00 0.00 52 1035.2
20260906042232 64 253 0.0 0.9 0.00 0.00 0.00 51 1035.1
20260906041727 65 254 0.0 0.9 0.00 0.00 0.00 50 1035.1
20260906041222 65 233 1.7 1.7 0.00 0.00 0.00 49 1034.9
20260906040718 64 226 0.9 0.9 0.00 0.00 0.00 50 1034.9
20260906040214 64 254 0.9 1.7 0.00 0.00 0.00 50 1034.9
20260906035709 64 245 0.9 0.9 0.00 0.00 0.00 51 1034.7
20260906035205 65 255 0.9 0.9 0.00 0.00 0.00 50 1034.9
20260906034704 65 254 0.0 0.0 0.00 0.00 0.00 50 1035.2
20260906034159 66 256 0.0 0.0 0.00 0.00 0.00 48 1035.1
20260906033655 67 256 0.0 0.0 0.00 0.00 0.00 47 1034.8
20260906033156 67 241 0.9 1.7 0.00 0.00 0.00 46 1034.9
20260906032651 66 247 0.9 0.9 0.00 0.00 0.00 47 1034.7
20260906032146 67 253 0.0 0.9 0.00 0.00 0.00 48 1035.1
20260906031641 67 251 0.9 0.9 0.00 0.00 0.00 47 1034.9
20260906031136 67 248 0.9 0.9 0.00 0.00 0.00 48 1034.7
20260906030636 67 245 0.9 0.9 0.00 0.00 0.00 48 1034.9
20260906030131 67 276 0.0 0.0 0.00 0.00 0.00 48 1034.8
20260906025630 67 276 0.0 0.0 0.00 0.00 0.00 48 1034.7
20260906025129 67 277 0.0 0.0 0.00 0.00 0.00 48 1034.3
20260906024624 67 278 0.0 0.9 0.00 0.00 0.00 48 1034.5
20260906024119 67 275 0.9 0.9 0.00 0.00 0.00 48 1034.4
20260906023615 67 281 0.0 0.0 0.00 0.00 0.00 48 1034.1
20260906023115 67 273 0.0 0.9 0.00 0.00 0.00 48 1034.3
20260906022610 66 262 1.7 1.7 0.00 0.00 0.00 48 1034.3
20260906022106 66 275 0.9 0.9 0.00 0.00 0.00 50 1034.4
20260906021602 66 290 0.0 0.0 0.00 0.00 0.00 51 1034.4
20260906021100 65 291 0.9 0.9 0.00 0.00 0.00 52 1034.3
20260906020600 66 292 0.0 0.0 0.00 0.00 0.00 51 1034.1
20260906020100 66 295 0.0 0.9 0.00 0.00 0.00 51 1034.1
20260906015554 66 277 0.0 0.9 0.00 0.00 0.00 52 1034.1
20260906015053 66 275 0.9 0.9 0.00 0.00 0.00 51 1034.0
20260906014548 66 288 0.9 0.9 0.00 0.00 0.00 51 1033.9
20260906014044 66 280 0.9 0.9 0.00 0.00 0.00 51 1034.0
20260906013539 66 280 0.9 0.9 0.00 0.00 0.00 52 1033.8
20260906013034 66 282 0.9 0.9 0.00 0.00 0.00 52 1033.8
20260906012529 66 286 0.9 0.9 0.00 0.00 0.00 53 1033.6
20260906012029 67 274 0.0 0.0 0.00 0.00 0.00 52 1033.8
20260906011525 67 268 0.0 0.0 0.00 0.00 0.00 52 1034.0
20260906011025 67 262 0.0 0.0 0.00 0.00 0.00 51 1034.0
20260906010520 67 257 0.9 0.9 0.00 0.00 0.00 51 1033.8
20260906010017 68 251 0.0 0.9 0.00 0.00 0.00 50 1033.9
20260906005516 69 262 0.9 0.9 0.00 0.00 0.00 49 1033.9
20260906005015 70 264 0.0 0.9 0.00 0.00 0.00 48 1034.0
20260906004515 70 209 3.5 3.5 0.00 0.00 0.00 48 1034.0
20260906004010 70 252 0.9 1.7 0.00 0.00 0.00 48 1033.9
20260906003505 70 248 1.7 1.7 0.00 0.00 0.00 49 1034.0
20260906003001 70 225 1.7 1.7 0.00 0.00 0.00 48 1034.0
20260906002501 71 223 0.0 1.7 0.00 0.00 0.00 48 1034.0
20260906001955 71 252 0.0 0.0 0.00 0.00 0.00 49 1033.9
20260906001451 71 223 1.7 1.7 0.00 0.00 0.00 48 1033.9
20260906000946 71 253 0.9 0.9 0.00 0.00 0.00 49 1033.9
20260906000442 70 235 1.7 1.7 0.00 0.00 0.00 48 1033.9
20260905235936 70 256 0.0 0.0 0.00 0.00 0.00 50 1034.0
20260905235436 70 266 0.9 0.9 0.00 0.00 0.00 49 1033.9
20260905234931 70 215 1.7 1.7 0.00 0.00 0.00 50 1033.9
20260905234427 70 252 0.9 0.9 0.00 0.00 0.00 50 1033.9
20260905233926 70 258 0.9 0.9 0.00 0.00 0.00 51 1034.0
20260905233422 71 266 0.0 0.9 0.00 0.00 0.00 50 1033.9
20260905232921 71 279 0.9 0.9 0.00 0.00 0.00 48 1033.8
20260905232417 71 236 0.0 0.0 0.00 0.00 0.00 49 1033.9
20260905231912 70 212 2.6 3.5 0.00 0.00 0.00 48 1034.0
20260905231408 71 225 1.7 1.7 0.00 0.00 0.00 47 1034.0
20260905230905 72 244 0.9 0.9 0.00 0.00 0.00 48 1033.9
20260905230403 72 222 2.6 2.6 0.00 0.00 0.00 46 1033.9
20260905225901 72 226 3.5 3.5 0.00 0.00 0.00 46 1034.0
20260905225356 71 240 0.0 0.9 0.00 0.00 0.00 48 1033.8
20260905224852 72 253 0.9 0.9 0.00 0.00 0.00 47 1034.0
20260905224347 72 260 1.7 2.6 0.00 0.00 0.00 47 1034.0
20260905223841 71 223 0.9 1.7 0.00 0.00 0.00 48 1034.1
20260905223339 70 213 2.6 3.5 0.00 0.00 0.00 49 1034.3
20260905222834 71 244 1.7 2.6 0.00 0.00 0.00 49 1034.4
20260905222333 70 244 1.7 1.7 0.00 0.00 0.00 48 1034.1
20260905221829 69 217 0.9 0.9 0.00 0.00 0.00 51 1034.3
20260905221326 71 241 0.0 0.0 0.00 0.00 0.00 47 1034.4
20260905220821 70 233 0.9 0.9 0.00 0.00 0.00 48 1034.4
20260905220317 70 215 2.6 3.5 0.00 0.00 0.00 48 1034.4
20260905215816 70 235 1.7 2.6 0.00 0.00 0.00 48 1034.4